AFL1549 GCRR-LPMA

Flight info

Callsign AFL1549
Flight time N/A
Altitude 32000
Route SARAY DCT BIMBO DCT EKNOT
Aircraft A321/M-SDE3FGHIRWY/LB1

Departure

Time 2026-05-04 12:07
Airport César Manrique-Lanzarote Airport (GCRR)

Arrival

Time N/A
Airport Cristiano Ronaldo International Airport (LPMA)
Time Latitude Longitude Altitude Speed Heading
2026-05-04 11:55 28.95304 -13.60355 51 ft 0 kts 298°
2026-05-04 12:02 28.95311 -13.60370 50 ft 3 kts 298°
2026-05-04 12:03 28.95298 -13.60437 51 ft 16 kts 227°
2026-05-04 12:03 28.95196 -13.60503 46 ft 17 kts 207°
2026-05-04 12:03 28.95130 -13.60497 47 ft 10 kts 121°
2026-05-04 12:03 28.95089 -13.60432 48 ft 13 kts 160°
2026-05-04 12:04 28.94970 -13.60487 47 ft 24 kts 206°
2026-05-04 12:04 28.94795 -13.60590 44 ft 32 kts 207°
2026-05-04 12:04 28.94603 -13.60700 41 ft 31 kts 206°
2026-05-04 12:04 28.94411 -13.60808 39 ft 30 kts 207°
2026-05-04 12:05 28.94223 -13.60915 36 ft 30 kts 207°
2026-05-04 12:05 28.94042 -13.61024 32 ft 29 kts 207°
2026-05-04 12:05 28.93878 -13.61117 31 ft 24 kts 205°
2026-05-04 12:05 28.93718 -13.61211 29 ft 26 kts 208°
2026-05-04 12:06 28.93663 -13.61221 28 ft 8 kts 165°
2026-05-04 12:06 28.93626 -13.61159 27 ft 11 kts 117°
2026-05-04 12:06 28.93598 -13.61074 28 ft 5 kts 71°
2026-05-04 12:06 28.93613 -13.61061 28 ft 0 kts 31°
2026-05-04 12:07 28.93703 -13.61008 40 ft 50 kts 27°
2026-05-04 12:07 28.94255 -13.60689 38 ft 124 kts 27°
2026-05-04 12:07 28.95157 -13.60192 442 ft 144 kts 30°
2026-05-04 12:07 28.96025 -13.59716 1414 ft 136 kts 29°
2026-05-04 12:08 28.96874 -13.59216 2295 ft 137 kts 29°
2026-05-04 12:08 28.97435 -13.58882 2865 ft 138 kts 28°
2026-05-04 12:08 28.98613 -13.58143 3699 ft 158 kts 29°
2026-05-04 12:08 28.99635 -13.57464 4108 ft 182 kts 29°
2026-05-04 12:09 29.00797 -13.56672 4553 ft 206 kts 29°
2026-05-04 12:09 29.02093 -13.55788 4997 ft 229 kts 27°
2026-05-04 12:09 29.03114 -13.55362 5290 ft 241 kts
2026-05-04 12:09 29.04793 -13.55589 6021 ft 248 kts 333°
2026-05-04 12:10 29.06157 -13.56758 6937 ft 246 kts 315°
2026-05-04 12:10 29.07479 -13.58029 7836 ft 250 kts 320°
2026-05-04 12:10 29.08895 -13.59199 8565 ft 253 kts 321°
2026-05-04 12:10 29.10396 -13.60392 8860 ft 270 kts 322°
2026-05-04 12:11 29.11960 -13.61635 9422 ft 276 kts 321°
2026-05-04 12:11 29.13537 -13.62904 10075 ft 278 kts 320°
2026-05-04 12:11 29.15146 -13.64223 10410 ft 295 kts 320°
2026-05-04 12:11 29.16873 -13.65666 10555 ft 318 kts 320°
2026-05-04 12:12 29.18715 -13.67216 10676 ft 340 kts 320°
2026-05-04 12:12 29.20686 -13.68880 10814 ft 363 kts 320°
2026-05-04 12:12 29.22775 -13.70647 11071 ft 381 kts 320°
2026-05-04 12:12 29.24935 -13.72473 11664 ft 387 kts 320°
2026-05-04 12:13 29.27090 -13.74291 12313 ft 391 kts 320°
2026-05-04 12:14 29.42953 -13.87716 16538 ft 417 kts 320°
2026-05-04 12:15 29.45296 -13.89706 17096 ft 421 kts 320°
2026-05-04 12:15 29.47664 -13.91715 17651 ft 425 kts 320°
2026-05-04 12:15 29.50029 -13.93718 18205 ft 430 kts 320°
2026-05-04 12:15 29.52448 -13.95769 18699 ft 433 kts 320°
2026-05-04 12:16 29.54882 -13.97836 19184 ft 436 kts 319°
2026-05-04 12:16 29.57334 -13.99920 19677 ft 439 kts 319°
2026-05-04 12:16 29.59787 -14.02007 20174 ft 442 kts 319°
2026-05-04 12:16 29.62271 -14.04128 20665 ft 444 kts 319°
2026-05-04 12:17 29.64716 -14.06222 21144 ft 447 kts 319°
2026-05-04 12:17 29.67217 -14.08360 21625 ft 449 kts 319°
2026-05-04 12:17 29.69750 -14.10519 22082 ft 452 kts 319°
2026-05-04 12:17 29.72289 -14.12681 22532 ft 455 kts 319°
2026-05-04 12:18 29.74830 -14.14850 22938 ft 453 kts 318°
2026-05-04 12:18 29.77184 -14.17176 23170 ft 452 kts 311°
2026-05-04 12:18 29.79445 -14.19679 23581 ft 456 kts 311°
2026-05-04 12:18 29.81786 -14.22266 23970 ft 458 kts 311°
2026-05-04 12:19 29.84067 -14.24779 24321 ft 461 kts 311°
2026-05-04 12:19 29.86377 -14.27325 24722 ft 461 kts 311°
2026-05-04 12:19 29.88697 -14.29885 25240 ft 458 kts 311°
2026-05-04 12:19 29.91006 -14.32430 25757 ft 456 kts 311°
2026-05-04 12:20 29.93289 -14.34946 26260 ft 455 kts 311°
2026-05-04 12:20 29.95568 -14.37465 26768 ft 453 kts 311°
2026-05-04 12:20 29.97842 -14.39984 27280 ft 451 kts 311°
2026-05-04 12:20 30.00100 -14.42486 27810 ft 450 kts 310°
2026-05-04 12:21 30.02343 -14.44973 28365 ft 448 kts 310°
2026-05-04 12:21 30.04601 -14.47480 28980 ft 446 kts 310°
2026-05-04 12:21 30.06832 -14.49955 29593 ft 444 kts 310°
2026-05-04 12:21 30.09035 -14.52397 30028 ft 446 kts 310°
2026-05-04 12:22 30.11285 -14.54897 30129 ft 454 kts 310°
2026-05-04 12:22 30.13582 -14.57456 30133 ft 460 kts 310°
2026-05-04 12:22 30.18167 -14.62552 30132 ft 455 kts 310°
2026-05-04 12:23 30.22703 -14.67597 30129 ft 450 kts 310°
2026-05-04 12:23 30.27190 -14.72608 30132 ft 447 kts 310°
2026-05-04 12:24 30.31637 -14.77581 30131 ft 446 kts 310°
2026-05-04 12:24 30.36103 -14.82583 30132 ft 445 kts 310°
2026-05-04 12:25 30.40564 -14.87589 30143 ft 452 kts 310°
2026-05-04 12:25 30.45106 -14.92679 30142 ft 455 kts 310°
2026-05-04 12:26 30.49640 -14.97777 30139 ft 455 kts 310°
2026-05-04 12:26 30.54197 -15.02910 30140 ft 455 kts 310°
2026-05-04 12:27 30.58742 -15.08032 30145 ft 456 kts 310°
2026-05-04 12:27 30.63265 -15.13139 30145 ft 456 kts 311°
2026-05-04 12:28 30.67857 -15.18249 30143 ft 460 kts 315°
2026-05-04 12:28 30.73229 -15.22355 30150 ft 466 kts 322°
2026-05-04 12:29 30.78731 -15.26365 30148 ft 467 kts 323°
2026-05-04 12:29 30.84260 -15.30399 30142 ft 468 kts 323°
2026-05-04 12:30 30.89777 -15.34436 30016 ft 471 kts 323°
2026-05-04 12:30 30.92545 -15.36468 29472 ft 474 kts 323°
2026-05-04 12:30 30.95320 -15.38496 28932 ft 468 kts 323°
2026-05-04 12:31 30.98084 -15.40516 28392 ft 465 kts 323°
2026-05-04 12:31 31.00813 -15.42521 27873 ft 464 kts 323°
2026-05-04 12:31 31.03548 -15.44542 27363 ft 466 kts 323°
2026-05-04 12:31 31.06302 -15.46578 26867 ft 470 kts 323°
2026-05-04 12:32 31.09049 -15.48602 26378 ft 473 kts 323°
2026-05-04 12:32 31.14643 -15.52703 25417 ft 477 kts 324°
2026-05-04 12:32 31.17456 -15.54766 24942 ft 479 kts 324°
2026-05-04 12:33 31.20280 -15.56844 24498 ft 480 kts 324°
2026-05-04 12:33 31.23115 -15.58935 24030 ft 481 kts 324°
2026-05-04 12:33 31.25933 -15.61021 23562 ft 480 kts 324°
2026-05-04 12:33 31.28751 -15.63107 23017 ft 477 kts 324°
2026-05-04 12:34 31.31518 -15.65153 22511 ft 472 kts 324°
2026-05-04 12:34 31.34284 -15.67199 21994 ft 467 kts 324°
2026-05-04 12:34 31.37020 -15.69221 21488 ft 463 kts 324°
2026-05-04 12:34 31.39720 -15.71219 20924 ft 454 kts 324°
2026-05-04 12:35 31.42375 -15.73186 20234 ft 448 kts 324°
2026-05-04 12:35 31.45001 -15.75137 19530 ft 443 kts 324°
2026-05-04 12:35 31.47587 -15.77064 18987 ft 440 kts 324°
2026-05-04 12:35 31.50152 -15.78976 18381 ft 433 kts 324°
2026-05-04 12:36 31.52678 -15.80872 17462 ft 429 kts 324°
2026-05-04 12:36 31.55179 -15.82750 16727 ft 425 kts 324°
2026-05-04 12:36 31.57670 -15.84610 16036 ft 420 kts 324°
2026-05-04 12:36 31.60114 -15.86425 15358 ft 415 kts 324°
2026-05-04 12:37 31.62542 -15.88228 14701 ft 411 kts 324°
2026-05-04 12:37 31.64911 -15.89988 13999 ft 405 kts 324°
2026-05-04 12:37 31.67279 -15.91747 13302 ft 396 kts 324°
2026-05-04 12:37 31.69521 -15.93434 12716 ft 370 kts 323°
2026-05-04 12:38 31.71603 -15.95044 12196 ft 347 kts 323°
2026-05-04 12:38 31.73544 -15.96609 11712 ft 328 kts 322°
2026-05-04 12:38 31.75369 -15.98111 11250 ft 311 kts 323°
2026-05-04 12:38 31.77139 -15.99436 10816 ft 298 kts 326°
2026-05-04 12:39 31.78901 -16.00637 10387 ft 286 kts 327°
2026-05-04 12:39 31.80581 -16.01801 9956 ft 275 kts 327°
2026-05-04 12:39 31.82198 -16.02935 9516 ft 270 kts 327°
2026-05-04 12:39 31.83812 -16.04070 9112 ft 268 kts 327°
2026-05-04 12:40 31.85419 -16.05169 8723 ft 267 kts 329°
2026-05-04 12:40 31.87053 -16.06208 8349 ft 266 kts 331°
2026-05-04 12:40 31.88708 -16.07160 7982 ft 264 kts 334°
2026-05-04 12:40 31.90388 -16.08012 7627 ft 262 kts 336°
2026-05-04 12:41 31.92049 -16.08878 7280 ft 260 kts 330°
2026-05-04 12:41 31.93613 -16.09927 6957 ft 257 kts 329°
2026-05-04 12:41 31.95147 -16.10930 6562 ft 254 kts 330°
2026-05-04 12:41 31.96704 -16.11885 6057 ft 249 kts 332°
2026-05-04 12:42 31.98243 -16.12743 5681 ft 240 kts 334°
2026-05-04 12:42 31.99765 -16.13507 5281 ft 235 kts 337°
2026-05-04 12:42 32.01272 -16.14185 5029 ft 226 kts 338°
2026-05-04 12:42 32.02717 -16.14834 4756 ft 218 kts 336°
2026-05-04 12:43 32.04070 -16.15546 4501 ft 207 kts 333°
2026-05-04 12:43 32.05313 -16.16259 4303 ft 189 kts 332°
2026-05-04 12:43 32.06403 -16.16969 4029 ft 173 kts 326°
2026-05-04 12:43 32.07317 -16.17708 4001 ft 149 kts 315°
2026-05-04 12:44 32.08060 -16.18652 3622 ft 161 kts 305°
2026-05-04 12:44 32.08609 -16.19778 3513 ft 154 kts 285°
2026-05-04 12:44 32.08864 -16.21037 3415 ft 166 kts 287°
2026-05-04 12:44 32.09279 -16.22365 3344 ft 175 kts 289°
2026-05-04 12:45 32.09711 -16.23685 3056 ft 172 kts 293°
2026-05-04 12:45 32.10142 -16.24934 2937 ft 161 kts 287°
2026-05-04 12:45 32.10319 -16.25765 2789 ft 163 kts 278°
2026-05-04 12:45 32.10447 -16.26626 2588 ft 164 kts 285°
2026-05-04 12:46 32.10847 -16.27838 2484 ft 154 kts 297°
2026-05-04 12:46 32.11344 -16.28956 2493 ft 154 kts 290°
2026-05-04 12:46 32.11742 -16.30134 2617 ft 159 kts 292°
2026-05-04 12:46 32.12317 -16.31259 2734 ft 163 kts 313°
2026-05-04 12:47 32.13159 -16.32212 2865 ft 171 kts 315°
2026-05-04 12:47 32.14035 -16.33207 2998 ft 180 kts 315°
2026-05-04 12:47 32.14973 -16.34262 3023 ft 193 kts 315°
2026-05-04 12:47 32.15982 -16.35378 3025 ft 203 kts 316°
2026-05-04 12:48 32.17038 -16.36527 3023 ft 210 kts 316°
2026-05-04 12:48 32.18143 -16.37744 2991 ft 224 kts 316°
2026-05-04 12:48 32.19318 -16.39011 3012 ft 238 kts 317°
2026-05-04 12:48 32.20579 -16.40344 3017 ft 250 kts 317°
2026-05-04 12:49 32.21903 -16.41737 3017 ft 259 kts 317°
2026-05-04 12:49 32.23277 -16.43183 3024 ft 267 kts 317°
2026-05-04 12:49 32.24683 -16.44665 3017 ft 273 kts 317°
2026-05-04 12:49 32.26105 -16.46165 3017 ft 277 kts 317°
2026-05-04 12:50 32.27555 -16.47700 3019 ft 281 kts 317°
2026-05-04 12:50 32.29011 -16.49245 3016 ft 282 kts 317°
2026-05-04 12:50 32.30476 -16.50791 3015 ft 280 kts 318°
2026-05-04 12:50 32.31929 -16.52319 3015 ft 279 kts 318°
2026-05-04 12:51 32.33373 -16.53842 3015 ft 278 kts 317°
2026-05-04 12:51 32.34794 -16.55349 3015 ft 277 kts 317°
2026-05-04 12:51 32.36223 -16.56869 3016 ft 276 kts 317°
2026-05-04 12:51 32.37655 -16.58391 3015 ft 275 kts 317°
2026-05-04 12:52 32.39079 -16.59910 3016 ft 275 kts 317°
2026-05-04 12:52 32.40495 -16.61425 3019 ft 275 kts 317°
2026-05-04 12:52 32.41912 -16.62938 3016 ft 274 kts 317°
2026-05-04 12:52 32.43334 -16.64456 3018 ft 274 kts 317°
2026-05-04 12:53 32.44753 -16.65969 3016 ft 274 kts 317°
2026-05-04 12:53 32.46146 -16.67441 3008 ft 257 kts 318°
2026-05-04 12:53 32.47010 -16.68329 3007 ft 239 kts 319°
2026-05-04 12:53 32.48191 -16.69560 3037 ft 210 kts 316°
2026-05-04 12:54 32.49499 -16.71021 2996 ft 181 kts 317°
2026-05-04 12:54 32.50146 -16.71575 3008 ft 165 kts 328°
2026-05-04 12:54 32.51080 -16.72193 3006 ft 144 kts 330°
2026-05-04 12:54 32.51969 -16.72790 3024 ft 151 kts 329°
2026-05-04 12:55 32.52866 -16.73497 3045 ft 158 kts 324°
2026-05-04 12:55 32.53799 -16.74190 3186 ft 157 kts 330°
2026-05-04 12:55 32.54763 -16.74841 3166 ft 161 kts 338°
2026-05-04 12:55 32.55740 -16.75462 3234 ft 157 kts 332°
2026-05-04 12:56 32.56696 -16.76086 3277 ft 156 kts 336°
2026-05-04 12:56 32.57677 -16.76646 3306 ft 158 kts 337°